This is the latest recevied weather packets stored in our database for station/object SQ9MHX-13. If no packets are shown the sender has not sent any weather packets the latest 10 day(s).
| Time | Temp. | Humidity | Pressure | Rain* | Wind** | Luminosity | Snow |
|---|---|---|---|---|---|---|---|
| 1777310883 | 11.11° C | 36% | 976.1 hPa | - | 0 m/s | - | - |
| 1777310585 | 11.11° C | 37% | 975.8 hPa | - | 0 m/s | - | - |
| 1777310286 | 11.11° C | 36% | 975.1 hPa | - | 0 m/s | - | - |
| 1777309689 | 12.22° C | 33% | 973.8 hPa | - | 0 m/s | - | - |
| 1777309391 | 12.78° C | 31% | 973.3 hPa | - | 0 m/s | - | - |
| 1777309092 | 12.78° C | 31% | 973.2 hPa | - | 0 m/s | - | - |
| 1777308794 | 12.78° C | 31% | 972.9 hPa | - | 0 m/s | - | - |
| 1777308495 | 12.78° C | 30% | 972.6 hPa | - | 0 m/s | - | - |
| 1777308197 | 12.78° C | 29% | 972.2 hPa | - | 0 m/s | - | - |
| 1777307898 | 13.89° C | 29% | 972 hPa | - | 0 m/s | - | - |
| 1777307600 | 13.89° C | 28% | 971.9 hPa | - | 0 m/s | - | - |
| 1777307301 | 12.78° C | 29% | 971.7 hPa | - | 0 m/s | - | - |
| 1777307003 | 13.89° C | 27% | 971.2 hPa | - | 0 m/s | - | - |
| 1777306704 | 13.89° C | 26% | 971 hPa | - | 0 m/s | - | - |
| 1777306406 | 13.89° C | 25% | 970.7 hPa | - | 0 m/s | - | - |
| 1777306107 | 13.89° C | 24% | 970.5 hPa | - | 0 m/s | - | - |
| 1777305809 | 13.89° C | 24% | 970.3 hPa | - | 0 m/s | - | - |
| 1777305211 | 13.89° C | 24% | 970.2 hPa | - | 0 m/s | - | - |
| 1777304912 | 13.89° C | 23% | 970 hPa | - | 0 m/s | - | - |
| 1777304614 | 15° C | 23% | 969.9 hPa | - | 0 m/s | - | - |
| 1777304315 | 13.89° C | 22% | 969.7 hPa | - | 0 m/s | - | - |
| 1777304017 | 15° C | 23% | 969.3 hPa | - | 0 m/s | - | - |
| 1777303718 | 15° C | 22% | 969.4 hPa | - | 0 m/s | - | - |
| 1777303121 | 15° C | 22% | 969.1 hPa | - | 0 m/s | - | - |
| 1777302822 | 15° C | 22% | 968.8 hPa | - | 0 m/s | - | - |
* Rain since midnight (hover to see other rain measurements)
** Current wind speed in m/s (hover to see current wind gust speed)